Flag for U.S.A. Weather past 2 weeks in Overland Park, Kansas, U.S.A.

Now
62 °F

Scattered clouds.


Feels Like: 62 °F
Forecast: 50 / 67 °F
Wind: 12 mph from North

Location: Johnson County Executive Airport

Current Time: Apr 19, 2015 at 11:15:55 AM

Latest Report: Apr 19, 2015 at 10:53 AM


Visibility: 10 mi

Pressure: 29.67 "Hg

Humidity: 73%

Dew point: 53 °F

Location of Overland ParkLocation

Historic Weather in Overland Park — Graph

°F

Overland Park temperature yesterday

Maximum temperature yesterday: 65 °F (at 12:53 AM)
Minimum temperature yesterday: 59 °F (at 10:53 PM)
Average temperature yesterday: 62 °F

Past Weeks' High & Low Weather Summary

 TemperatureHumidityPressure
High83 °F (Apr 7, 3:53 PM)100% (Apr 5, 11:53 PM)30.40 "Hg (Apr 5, 11:53 PM)
Low38 °F (Apr 10, 3:53 AM)22% (Apr 13, 1:53 PM)29.54 "Hg (Apr 9, 4:53 AM)
Average59 °F70%29.95 "Hg
* Reported Apr 4 9:53 AM — Apr 19 9:53 AM, Overland Park, Weather by CustomWeather, © 2015

Note: Actual official high and low records may vary slightly from our data, if they occured in-between our weather recording intervals... More about our weather records

Advertising

Overland Park weather history for previous 24 hours

 ConditionsComfort  
Time TempWeatherWind HumidityBarometerVisibility
9:53 AM
Sun, Apr 19
57 °FScattered clouds.8 mph87%29.68 "Hg10 mi
8:53 AM57 °FSunny.7 mph87%29.70 "Hg10 mi
7:53 AM54 °FSunny.6 mph97%29.70 "Hg10 mi
6:53 AM53 °FPassing clouds.6 mph96%29.67 "Hg10 mi
5:53 AM53 °FPassing clouds.8 mph96%29.65 "Hg10 mi
4:53 AM54 °FOvercast.12 mph93%29.72 "Hg10 mi
4:02 AM55 °FThundershowers. Mostly cloudy.12 mph93%29.76 "Hg7 mi
3:53 AM56 °FFog.10 mph93%29.75 "Hg6 mi
2:53 AM58 °FMostly cloudy.No wind97%29.74 "Hg7 mi
2:02 AM59 °FOvercast.3 mph96%29.79 "Hg10 mi
1:53 AM60 °FMostly cloudy.3 mph93%29.78 "Hg10 mi
12:53 AM59 °FMostly cloudy.3 mph96%29.77 "Hg10 mi
11:53 PM
Sat, Apr 18
59 °FMostly cloudy.No wind96%29.78 "Hg10 mi
10:53 PM59 °FPassing clouds.3 mph93%29.79 "Hg10 mi
9:53 PM60 °FPassing clouds.3 mph93%29.81 "Hg10 mi
8:53 PM60 °FSunny.5 mph90%29.81 "Hg10 mi
7:53 PM61 °FPassing clouds.8 mph90%29.82 "Hg10 mi
6:53 PM63 °FPartly sunny.10 mph84%29.82 "Hg10 mi
5:53 PM64 °FMostly cloudy.10 mph84%29.81 "Hg10 mi
4:53 PM63 °FMore clouds than sun.6 mph87%29.83 "Hg10 mi
3:53 PM62 °FCloudy.7 mph90%29.86 "Hg10 mi
2:53 PM61 °FLight rain. Mostly cloudy.7 mph93%29.88 "Hg10 mi
1:53 PM61 °FLight rain. Fog.6 mph93%29.90 "Hg5 mi
12:53 PM62 °FLight rain. Cloudy.3 mph90%29.91 "Hg7 mi
11:53 AM62 °FMostly cloudy.6 mph93%29.91 "Hg10 mi
Weather by CustomWeather, © 2015

See weather overviewHow to use our weather pages